Location: ?
(35.3436°N, 139.3168°E)
Time: 10:30:54
(UTC+00:00)

X-37B - Pass Details

Date: 30 January 2021
Orbit: 383 x 391 km, 45.0° (Epoch: 10 February)

Event Time Altitude Azimuth Distance (km) Brightness Sun altitude
Rises 09:47:08 0° 302° (WNW) 2,273 5.3 -20.3°
Reaches altitude 10° 09:49:12 10° 305° (NW) 1,417 4.1 -20.7°
Enters shadow 09:51:37 46° 320° (NW) 529 1.4 -21.2°
